STARLINK-1513, 45786

Orbit data source: Space-Track

STARLINK-1513, 45786 is a payload satellite owned by SpaceX/Seattle (US) in LEO that was launched on Sat, 13 Jun 2020 UTC via an FALCON 9 launch vehicle from the Air Force Eastern Test Range (AFETR). Payload-class satellites include a variety of spacecraft equipped with specific instruments for various scientific and technological missions. These include communications satellites like Starlink; space stations such as the ISS; scientific satellites like the Hubble; Earth observation satellites from companies like Planet Labs, Umbra, and HawkEye 360; GPS; miniature CubeSats for education and research; and military/defense satellites.

Loading next visibility...
Identifier
45786, 2020-038BJ
Orbit
LEO
Country
Flag of USUS
Related business
Manufacturer
SpaceX/Seattle
Mission
Operational Commercial Communications
Bus & Motor
STARLINK, Unknown motor
Mass
260 kg wet, ~248 kg dry
Launch date (UTC)
2020-06-13 (6 years ago)
Launch vehicle
FALCON 9
Launch site
Air Force Eastern Test Range (AFETR)
Object type
Payload
Rocket body
Debris
Shape & HBR
Box + 1 Pan, 10.1 m
Radar Cross Section
13.562 m², Large (>1 m²)

Expand to show TLE details & history
Last TLE update: 2 days ago

TLE from 2 days ago
0 STARLINK-1513
1 45786U 20038BJ  26171.43061632  .00002004  00000-0  76317-4 0  9999
2 45786  53.1609  73.2190 0001292  87.2523 272.8626 15.31704557332581
Epoch: 2026-06-20T10:20Z
TLE epoch observation values (Epoch: 2026-06-20T10:20:05.250Z)
Latitude
-0.00002°
Longitude
9.55176°
Altitude
471.583 km
Speed
7.631 km/s
True Right ascension
04h 52m 52s
True Declination
0° 00' 00"
Sunlit
Object was in daylight at epoch
Visualization orbit readout
Latitude
Unknown
Longitude
Unknown
Altitude
Unknown
Speed
Unknown
Apparent Right ascension
Unknown
Apparent Declination
Unknown
Sunlit
N/A
Visualization observer readout
Local Sidereal Time
00:50:16
Azimuth
Unknown
Elevation
Unknown
Doppler factor
Unknown
Orbital elements
Apogee altitude
471.868 km
Perigee altitude
470.098 km
Semi-major axis
6,849.12 km
Eccentricity
0.00013
Inclination
53.1609°
RAAN
73.219°
Arg. of periapsis
87.2523°
True anomaly
272.84781°
Mean anomaly
272.8626°
Eccentric anomaly
272.85521°
Mean motion
3.82905 °/min
Orbital period
94.02 mins
BSTAR
0.000076317
Loading maneuver chart data...
Computing Atmospheric mass density...

Documentation

Showing up to 5 results
|